Regional Weather Roundup
Issued by NWS State College, PA

Home | Current Version | Previous Version | Graphics & Text | Print | Product List | Glossary Off
Versions: 1 2 3 4 5 6 7 8 9 10 11 12 13 14 15 16 17 18 19 20 21 22 23 24 25 26 27 28 29 30 31 32 33 34 35 36 37 38 39 40 41 42 43 44 45 46 47 48 49 50

000
ASUS41 KCTP 051810
RWRCTP

REGIONAL WEATHER ROUNDUP
NATIONAL WEATHER SERVICE STATE COLLEGE PA
100 PM EST MON DEC 05 2016

Note: "fair" indicates few or no clouds below 12,000 feet with no
significant weather and/or obstructions to visibility.

* = STATION THAT DOES NOT REPORT PRECIPITATION /E.G. RAIN...SNOW...ETC/
    THUNDER OR FOG.

PAZ002>004-007>009-013>016-020>023-029>032-051900-
WESTERN PENNSYLVANIA

CITY           SKY/WX    TMP DP  RH WIND       PRES   REMARKS
ERIE           CLOUDY    42  31  64 W12G22    30.03R
MEADVILLE      CLOUDY    37  31  78 W7        30.02S
FRANKLIN*        N/A     37  28  70 W10G16    30.03S
NEW CASTLE     CLOUDY    40  31  70 W7        30.06F
BEAVER COUNTY  CLOUDY    41  30  65 NW5       30.05F
BUTLER*        CLOUDY    39  28  65 NW8       30.07F
PITTSBURGH INT CLOUDY    42  30  62 W9        30.06F
PITTSBURGH     PTSUNNY   39  26  59 W7        30.06S
INDIANA*       CLOUDY    39  32  75 W9        30.06S
LATROBE        PTSUNNY   41  32  70 NW9       30.07S
WASHINGTON CO* PTSUNNY   39  28  65 W7        30.08R
$$

PAZ004>006-010>012-017>019-024>028-033>037-041-042-045-046-049>053-051900-
CENTRAL PENNSYLVANIA

CITY           SKY/WX    TMP DP  RH WIND       PRES   REMARKS
BRADFORD       CLOUDY    34  32  92 VRB7      29.96R
DUBOIS         CLOUDY    37  30  75 W10       29.99S
CLEARFIELD     CLOUDY    39  31  72 W9        30.00F
JOHNSTOWN      CLOUDY    36  30  79 NW14      29.99S
ALTOONA        CLOUDY    42  31  64 NW13G21   30.01S
STATE COLLEGE  PTSUNNY   39  28  65 NW14G26   30.00R
WILLIAMSPORT   PTSUNNY  N/A N/A N/A W13G26    29.96S
SELINSGROVE    MOSUNNY   48  36  63 NW10      29.99S
FT INDIANTOWN  PTSUNNY   47  36  65 W16       29.98S
CAPITAL CITY   PTSUNNY   50  38  63 W7        30.00S
HARRISBURG     PTSUNNY   48  40  73 W6        30.00S
YORK           MOSUNNY   47  40  76 W3        30.00R
$$

PAZ038>040-043-044-047-048-054-055-060>062-067>071-051900-
EASTERN PENNSYLVANIA

CITY           SKY/WX    TMP DP  RH WIND       PRES   REMARKS
SCRANTON       CLOUDY    42  35  76 SW13      29.94S
MOUNT POCONO   PTSUNNY   37  31  78 W12       29.89F
ALLENTOWN      PTSUNNY   45  37  73 W10       29.98F
QUAKERTOWN*    PTCLDY    46  37  71 NW8G16    29.98F
READING        PTSUNNY   49  37  63 W9        29.98F
LANCASTER      MOSUNNY   48  39  71 NW13      29.99F
COATESVILLE    MOCLDY    45  37  76 NW13G21   29.99F
POTTSTOWN      MOSUNNY   47  36  65 W10       29.99F
BLUE BELL      PTSUNNY   45  37  76 NW8G18    29.97F
DOYLESTOWN     PTSUNNY   48  40  73 W10G18    29.97F
WILLOW GROVE   NOT AVBL
NORTH PHILA    MOSUNNY   50  40  68 NW13      30.00S
PHILADELPHIA   MOSUNNY   49  38  65 NW15      29.99F
$$



USA.gov is the U.S. government's official web portal to all federal, state and local government web resources and services.